| time (UTC) | temp F | wind direction | speed MPH | gust MPH | rain 1hr in | rain 24hr in | rain mn in | humidity % | barometer mb |
| 20260904192819 | 91 | 338 | 4.0 | 8.0 | 0.00 | 0.49 | 0.49 | 68 | 1012.1 |
| 20260904191819 | 91 | 338 | 4.0 | 6.0 | 0.00 | 0.49 | 0.49 | 68 | 1012.2 |
| 20260904190819 | 92 | 315 | 3.0 | 4.0 | 0.00 | 0.49 | 0.49 | 67 | 1012.2 |
| 20260904185839 | 93 | 338 | 2.0 | 3.0 | 0.00 | 0.49 | 0.49 | 67 | 1012.4 |
| 20260904184819 | 93 | 270 | 2.0 | 3.0 | 0.00 | 0.49 | 0.49 | 68 | 1012.5 |
| 20260904183839 | 93 | 338 | 1.0 | 2.0 | 0.00 | 0.49 | 0.49 | 67 | 1012.5 |
| 20260904182818 | 94 | 338 | 2.0 | 5.0 | 0.00 | 0.49 | 0.49 | 67 | 1012.6 |
| 20260904181819 | 94 | 0.0 | 1.0 | 0.00 | 0.49 | 0.49 | 64 | 1012.7 | |
| 20260904180819 | 93 | 315 | 4.0 | 6.0 | 0.00 | 0.49 | 0.49 | 70 | 1012.8 |
| 20260904175839 | 92 | 315 | 2.0 | 4.0 | 0.00 | 0.49 | 0.49 | 66 | 1012.8 |
| 20260904174819 | 92 | 338 | 2.0 | 3.0 | 0.00 | 0.49 | 0.49 | 70 | 1013.0 |
| 20260904173819 | 92 | 338 | 4.0 | 5.0 | 0.00 | 0.49 | 0.49 | 67 | 1013.1 |
| 20260904172819 | 92 | 0.0 | 1.0 | 0.00 | 0.49 | 0.49 | 66 | 1013.1 | |
| 20260904171819 | 91 | 315 | 3.0 | 4.0 | 0.00 | 0.49 | 0.49 | 70 | 1013.0 |
| 20260904170818 | 90 | 338 | 3.0 | 6.0 | 0.00 | 0.49 | 0.49 | 71 | 1013.2 |
| 20260904165819 | 90 | 338 | 4.0 | 6.0 | 0.00 | 0.49 | 0.49 | 69 | 1013.4 |
| 20260904164819 | 89 | 315 | 5.0 | 8.0 | 0.00 | 0.49 | 0.49 | 70 | 1013.3 |
| 20260904163819 | 89 | 338 | 8.0 | 13.0 | 0.00 | 0.49 | 0.49 | 68 | 1013.5 |
| 20260904162819 | 87 | 315 | 3.0 | 6.0 | 0.00 | 0.49 | 0.49 | 73 | 1013.6 |
| 20260904161819 | 87 | 338 | 7.0 | 10.0 | 0.00 | 0.49 | 0.49 | 74 | 1013.6 |
| 20260904160819 | 87 | 338 | 9.0 | 13.0 | 0.00 | 0.49 | 0.49 | 73 | 1013.6 |
| 20260904155859 | 86 | 338 | 7.0 | 9.0 | 0.00 | 0.49 | 0.49 | 74 | 1013.6 |
| 20260904154819 | 86 | 338 | 10.0 | 13.0 | 0.00 | 0.49 | 0.49 | 73 | 1013.7 |
| 20260904153819 | 87 | 338 | 7.0 | 9.0 | 0.00 | 0.49 | 0.49 | 76 | 1013.6 |
| 20260904152819 | 86 | 315 | 7.0 | 9.0 | 0.00 | 0.49 | 0.49 | 77 | 1013.7 |
| 20260904151818 | 86 | 338 | 7.0 | 9.0 | 0.00 | 0.49 | 0.49 | 76 | 1013.6 |
| 20260904150819 | 85 | 315 | 5.0 | 7.0 | 0.00 | 0.49 | 0.49 | 79 | 1013.5 |
| 20260904145819 | 84 | 338 | 8.0 | 11.0 | 0.00 | 0.49 | 0.49 | 81 | 1014.0 |
| 20260904144819 | 84 | 338 | 9.0 | 13.0 | 0.00 | 0.49 | 0.49 | 80 | 1013.9 |
| 20260904143819 | 83 | 338 | 10.0 | 14.0 | 0.00 | 0.49 | 0.49 | 81 | 1013.8 |
| 20260904142819 | 82 | 338 | 7.0 | 10.0 | 0.00 | 0.49 | 0.49 | 83 | 1013.8 |
| 20260904141818 | 82 | 338 | 7.0 | 10.0 | 0.00 | 0.49 | 0.49 | 86 | 1013.8 |
| 20260904140819 | 81 | 315 | 6.0 | 9.0 | 0.00 | 0.49 | 0.49 | 91 | 1013.7 |
| 20260904135819 | 79 | 315 | 2.0 | 3.0 | 0.00 | 0.49 | 0.49 | 93 | 1013.8 |
| 20260904134839 | 78 | 315 | 2.0 | 4.0 | 0.00 | 0.49 | 0.49 | 96 | 1013.6 |
| 20260904133819 | 76 | 315 | 3.0 | 5.0 | 0.00 | 0.49 | 0.49 | 96 | 1013.5 |
| 20260904132818 | 76 | 338 | 3.0 | 5.0 | 0.00 | 0.49 | 0.49 | 97 | 1013.6 |
| 20260904131818 | 76 | 338 | 3.0 | 6.0 | 0.00 | 0.49 | 0.49 | 99 | 1013.5 |
| 20260904130820 | 75 | 0.0 | 0.0 | 0.00 | 0.49 | 0.49 | 99 | 1013.5 | |
| 20260904125839 | 75 | 338 | 1.0 | 2.0 | 0.00 | 0.49 | 0.49 | 99 | 1013.8 |
| 20260904124818 | 74 | 0.0 | 0.0 | 0.00 | 0.49 | 0.49 | 99 | 1013.7 | |
| 20260904123818 | 74 | 315 | 1.0 | 2.0 | 0.00 | 0.49 | 0.49 | 99 | 1013.7 |
| 20260904122818 | 74 | 315 | 1.0 | 2.0 | 0.00 | 0.49 | 0.49 | 99 | 1013.8 |
| 20260904121818 | 74 | 0.0 | 1.0 | 0.00 | 0.49 | 0.49 | 99 | 1013.7 | |
| 20260904120820 | 73 | 0.0 | 1.0 | 0.00 | 0.49 | 0.49 | 99 | 1013.8 | |
| 20260904115818 | 73 | 0.0 | 0.0 | 0.00 | 0.49 | 0.49 | 99 | 1013.6 | |
| 20260904114818 | 73 | 0.0 | 0.0 | 0.00 | 0.49 | 0.49 | 99 | 1013.5 | |
| 20260904113820 | 73 | 270 | 1.0 | 1.0 | 0.00 | 0.49 | 0.49 | 99 | 1013.8 |
| 20260904112818 | 73 | 270 | 1.0 | 2.0 | 0.00 | 0.49 | 0.49 | 99 | 1013.9 |
| 20260904111818 | 73 | 0.0 | 0.0 | 0.00 | 0.49 | 0.49 | 99 | 1013.6 | |
| 20260904110838 | 73 | 0.0 | 0.0 | 0.00 | 0.49 | 0.49 | 99 | 1013.6 | |
| 20260904105820 | 73 | 0.0 | 0.0 | 0.00 | 0.49 | 0.49 | 99 | 1013.5 | |
| 20260904104820 | 73 | 0.0 | 0.0 | 0.00 | 0.49 | 0.49 | 99 | 1013.5 | |
| 20260904103818 | 73 | 0.0 | 0.0 | 0.00 | 0.49 | 0.49 | 99 | 1013.4 | |
| 20260904102838 | 73 | 0.0 | 0.0 | 0.00 | 0.49 | 0.49 | 99 | 1013.2 | |
| 20260904101818 | 73 | 0.0 | 0.0 | 0.00 | 0.49 | 0.49 | 99 | 1013.1 | |
| 20260904100818 | 73 | 0.0 | 0.0 | 0.00 | 0.49 | 0.49 | 99 | 1012.8 | |
| 20260904095818 | 73 | 0.0 | 0.0 | 0.00 | 0.49 | 0.49 | 99 | 1012.8 | |
| 20260904094820 | 73 | 0.0 | 0.0 | 0.00 | 0.49 | 0.49 | 99 | 1012.8 | |
| 20260904093818 | 74 | 0.0 | 0.0 | 0.00 | 0.49 | 0.49 | 99 | 1012.5 | |
| 20260904092820 | 74 | 0.0 | 0.0 | 0.00 | 0.49 | 0.49 | 99 | 1012.3 | |
| 20260904091840 | 74 | 0.0 | 0.0 | 0.00 | 0.49 | 0.49 | 99 | 1012.5 | |
| 20260904090820 | 74 | 0.0 | 0.0 | 0.00 | 0.49 | 0.49 | 99 | 1012.6 | |
| 20260904085820 | 73 | 0.0 | 0.0 | 0.00 | 0.49 | 0.49 | 99 | 1012.5 | |
| 20260904084820 | 73 | 0.0 | 0.0 | 0.00 | 0.49 | 0.49 | 99 | 1012.8 | |
| 20260904083820 | 73 | 0.0 | 0.0 | 0.00 | 0.49 | 0.49 | 99 | 1012.7 | |
| 20260904082820 | 73 | 0.0 | 0.0 | 0.00 | 0.49 | 0.49 | 99 | 1013.0 | |
| 20260904081820 | 73 | 0.0 | 0.0 | 0.00 | 0.49 | 0.49 | 99 | 1013.0 | |
| 20260904080820 | 73 | 0.0 | 0.0 | 0.01 | 0.49 | 0.49 | 99 | 1013.2 | |
| 20260904075819 | 73 | 0.0 | 0.0 | 0.01 | 0.49 | 0.49 | 99 | 1013.0 | |
| 20260904074818 | 73 | 0.0 | 0.0 | 0.01 | 0.49 | 0.49 | 99 | 1012.8 | |
| 20260904073820 | 73 | 0.0 | 0.0 | 0.01 | 0.49 | 0.49 | 98 | 1012.9 | |
| 20260904072820 | 73 | 0.0 | 0.0 | 0.01 | 0.49 | 0.49 | 98 | 1013.0 | |
| 20260904071820 | 73 | 0.0 | 0.0 | 0.01 | 0.49 | 0.49 | 98 | 1013.1 | |
| 20260904070820 | 73 | 0.0 | 1.0 | 0.01 | 0.48 | 0.48 | 98 | 1013.3 | |
| 20260904065819 | 73 | 0.0 | 0.0 | 0.02 | 0.48 | 0.48 | 98 | 1013.4 | |
| 20260904064820 | 73 | 180 | 1.0 | 1.0 | 0.03 | 0.48 | 0.48 | 98 | 1013.5 |
| 20260904063819 | 73 | 180 | 1.0 | 3.0 | 0.05 | 0.48 | 0.48 | 98 | 1013.3 |
| 20260904062818 | 73 | 180 | 1.0 | 1.0 | 0.06 | 0.48 | 0.48 | 98 | 1013.0 |
| 20260904061820 | 73 | 180 | 1.0 | 2.0 | 0.08 | 0.48 | 0.48 | 98 | 1013.0 |
| 20260904060819 | 73 | 158 | 4.0 | 5.0 | 0.09 | 0.47 | 0.47 | 98 | 1012.6 |
| 20260904055819 | 74 | 135 | 1.0 | 2.0 | 0.23 | 0.46 | 0.46 | 98 | 1012.8 |
| 20260904054819 | 74 | 113 | 2.0 | 3.0 | 0.44 | 0.44 | 0.44 | 97 | 1013.1 |
| 20260904053820 | 74 | 113 | 1.0 | 2.0 | 0.43 | 0.43 | 0.43 | 97 | 1013.4 |
| 20260904052819 | 74 | 0.0 | 0.0 | 0.41 | 0.41 | 0.41 | 96 | 1014.5 | |
| 20260904051819 | 74 | 0.0 | 1.0 | 0.40 | 0.40 | 0.40 | 96 | 1015.4 | |
| 20260904050840 | 75 | 315 | 5.0 | 12.0 | 0.38 | 0.38 | 0.38 | 95 | 1015.5 |
| 20260904045839 | 76 | 315 | 9.0 | 29.0 | 0.20 | 0.20 | 0.20 | 94 | 1015.5 |
| 20260904044819 | 78 | 315 | 7.0 | 14.0 | 0.00 | 0.00 | 0.00 | 90 | 1015.6 |
| 20260904043820 | 80 | 180 | 2.0 | 5.0 | 0.00 | 0.00 | 0.00 | 97 | 1014.3 |
| 20260904042839 | 80 | 180 | 3.0 | 6.0 | 0.00 | 0.00 | 0.00 | 98 | 1013.0 |
| 20260904041819 | 79 | 0.0 | 0.0 | 0.00 | 0.00 | 0.00 | 98 | 1012.8 | |
| 20260904040819 | 79 | 0.0 | 0.0 | 0.00 | 0.00 | 0.00 | 97 | 1012.3 | |
| 20260904035819 | 79 | 0.0 | 0.0 | 0.00 | 0.00 | 0.00 | 97 | 1012.0 | |
| 20260904034839 | 79 | 0.0 | 0.0 | 0.00 | 0.00 | 0.00 | 97 | 1012.4 | |
| 20260904033819 | 79 | 0.0 | 0.0 | 0.00 | 0.00 | 0.00 | 97 | 1012.7 | |
| 20260904032818 | 79 | 0.0 | 0.0 | 0.00 | 0.00 | 0.00 | 97 | 1012.9 | |
| 20260904031818 | 79 | 0.0 | 0.0 | 0.00 | 0.00 | 0.00 | 96 | 1013.0 | |
| 20260904030827 | 80 | 0.0 | 0.0 | 0.00 | 0.00 | 0.00 | 96 | 1013.1 | |
| 20260904025818 | 80 | 0.0 | 0.0 | 0.00 | 0.00 | 0.00 | 96 | 1013.2 | |
| 20260904024818 | 80 | 0.0 | 0.0 | 0.00 | 0.00 | 0.00 | 95 | 1013.3 | |
| 20260904023820 | 80 | 0.0 | 0.0 | 0.00 | 0.00 | 0.00 | 95 | 1013.2 | |
| 20260904022818 | 80 | 0.0 | 0.0 | 0.00 | 0.00 | 0.00 | 95 | 1013.4 | |
| 20260904021818 | 80 | 0.0 | 0.0 | 0.00 | 0.00 | 0.00 | 94 | 1013.4 | |
| 20260904020818 | 81 | 0.0 | 0.0 | 0.00 | 0.00 | 0.00 | 94 | 1013.3 | |
| 20260904015818 | 81 | 0.0 | 0.0 | 0.00 | 0.00 | 0.00 | 94 | 1013.2 | |
| 20260904014818 | 81 | 0.0 | 0.0 | 0.00 | 0.00 | 0.00 | 94 | 1013.3 | |
| 20260904013838 | 81 | 0.0 | 0.0 | 0.00 | 0.00 | 0.00 | 94 | 1013.4 | |
| 20260904012820 | 81 | 0.0 | 0.0 | 0.00 | 0.00 | 0.00 | 93 | 1013.6 | |
| 20260904011859 | 81 | 0.0 | 0.0 | 0.00 | 0.00 | 0.00 | 92 | 1013.9 | |
| 20260904010819 | 81 | 0.0 | 0.0 | 0.00 | 0.00 | 0.00 | 92 | 1013.9 | |
| 20260904005820 | 81 | 180 | 1.0 | 2.0 | 0.00 | 0.00 | 0.00 | 92 | 1014.1 |
| 20260904004818 | 80 | 203 | 1.0 | 2.0 | 0.00 | 0.00 | 0.00 | 92 | 1014.1 |
| 20260904003818 | 80 | 0.0 | 1.0 | 0.00 | 0.00 | 0.00 | 92 | 1014.1 | |
| 20260904002838 | 81 | 0.0 | 0.0 | 0.00 | 0.00 | 0.00 | 91 | 1014.0 | |
| 20260904001820 | 81 | 0.0 | 1.0 | 0.00 | 0.00 | 0.00 | 91 | 1013.8 | |
| 20260904000820 | 81 | 0.0 | 0.0 | 0.00 | 0.00 | 0.00 | 90 | 1013.7 | |
| 20260903235818 | 81 | 0.0 | 2.0 | 0.00 | 0.00 | 0.00 | 90 | 1013.4 | |
| 20260903234818 | 81 | 0.0 | 1.0 | 0.00 | 0.00 | 0.00 | 90 | 1013.2 | |
| 20260903233840 | 82 | 0.0 | 0.0 | 0.00 | 0.00 | 0.00 | 90 | 1013.1 | |
| 20260903232838 | 83 | 0.0 | 0.0 | 0.00 | 0.00 | 0.00 | 89 | 1013.2 | |
| 20260903231858 | 83 | 0.0 | 0.0 | 0.00 | 0.00 | 0.00 | 87 | 1013.4 | |
| 20260903230820 | 84 | 180 | 1.0 | 2.0 | 0.00 | 0.00 | 0.00 | 86 | 1013.2 |
| 20260903225840 | 84 | 0.0 | 0.0 | 0.00 | 0.00 | 0.00 | 86 | 1013.2 | |
| 20260903224820 | 85 | 0.0 | 0.0 | 0.00 | 0.00 | 0.00 | 85 | 1013.2 | |
| 20260903223840 | 85 | 0.0 | 2.0 | 0.00 | 0.00 | 0.00 | 84 | 1013.1 | |
| 20260903222820 | 85 | 180 | 1.0 | 2.0 | 0.00 | 0.00 | 0.00 | 84 | 1013.0 |
| 20260903221820 | 85 | 0.0 | 0.0 | 0.00 | 0.00 | 0.00 | 83 | 1013.1 | |
| 20260903220818 | 85 | 0.0 | 0.0 | 0.00 | 0.00 | 0.00 | 82 | 1013.1 | |
| 20260903215820 | 85 | 0.0 | 0.0 | 0.00 | 0.00 | 0.00 | 81 | 1013.1 | |
| 20260903214820 | 86 | 0.0 | 0.0 | 0.00 | 0.00 | 0.00 | 80 | 1013.1 | |
| 20260903213820 | 86 | 0.0 | 0.0 | 0.00 | 0.00 | 0.00 | 81 | 1013.2 | |
| 20260903212820 | 86 | 0.0 | 0.0 | 0.00 | 0.00 | 0.00 | 81 | 1013.3 | |
| 20260903211820 | 86 | 180 | 2.0 | 3.0 | 0.00 | 0.00 | 0.00 | 81 | 1013.3 |
| 20260903210820 | 86 | 203 | 1.0 | 3.0 | 0.00 | 0.00 | 0.00 | 82 | 1013.3 |
| 20260903205838 | 87 | 203 | 3.0 | 4.0 | 0.00 | 0.00 | 0.00 | 81 | 1013.5 |
| 20260903204820 | 87 | 180 | 2.0 | 3.0 | 0.00 | 0.00 | 0.00 | 80 | 1013.5 |
| 20260903203840 | 87 | 0.0 | 2.0 | 0.00 | 0.00 | 0.00 | 81 | 1013.4 | |
| 20260903202820 | 87 | 180 | 2.0 | 3.0 | 0.00 | 0.00 | 0.00 | 81 | 1013.6 |
| 20260903201819 | 87 | 180 | 2.0 | 2.0 | 0.00 | 0.00 | 0.00 | 80 | 1013.9 |
| 20260903200820 | 87 | 180 | 1.0 | 2.0 | 0.00 | 0.00 | 0.00 | 81 | 1014.2 |
| 20260903195819 | 87 | 180 | 1.0 | 2.0 | 0.00 | 0.00 | 0.00 | 82 | 1014.1 |
| 20260903194820 | 87 | 180 | 2.0 | 3.0 | 0.00 | 0.00 | 0.00 | 80 | 1014.2 |
| 20260903193839 | 87 | 180 | 2.0 | 3.0 | 0.00 | 0.00 | 0.00 | 79 | 1014.3 |